Theta_e
310 310 310 310 310 310 310 310 310 311 311 311 312 312 312 313 313 313 313 313 313 313 313 313 313 313 314 316 317 316 307 308 312 312 314 314 313 314 315 314 315 315 315 314 314
309 309 309 309 309 310 310 310 310 311 311 311 312 312 312 312 313 313 314 313 313 314 312 312 313 314 315 317 318 311 306 308 310 312 314 314 314 315 314 313 314 314 314 314 314
309 309 309 309 309 310 310 310 311 311 311 311 311 311 312 312 314 313 312 312 312 311 311 312 315 314 315 316 317 312 310 309 313 314 315 314 314 315 314 313 313 312 313 313 313
309 309 309 309 309 310 310 310 311 311 310 310 311 312 314 316 312 314 312 312 312 312 312 313 314 314 313 313 314 315 314 313 315 315 315 314 314 314 314 313 313 312 312 313 314
309 309 309 309 310 310 310 310 310 310 310 310 313 315 317 318 317 317 315 313 313 312 312 313 313 313 312 312 312 314 313 314 315 314 314 313 313 313 314 312 311 312 313 313 312
309 309 310 310 310 310 310 309 309 309 310 313 316 317 317 316 318 318 318 317 315 313 312 312 312 313 313 312 312 311 312 312 313 313 312 312 311 313 309 311 312 312 312 311 311
311 310 310 310 310 309 309 309 310 312 314 316 317 317 317 319 319 318 318 317 317 314 312 311 312 313 313 312 312 313 311 308 310 311 310 311 311 310 310 311 311 310 310 309 309
315 313 313 313 314 314 314 314 315 315 316 316 316 316 316 317 317 317 317 317 316 313 312 312 312 314 314 313 310 310 309 311 311 310 311 311 313 308 310 311 308 307 307 307 307
315 315 315 315 315 315 315 315 315 315 315 315 315 316 316 316 316 316 315 315 315 314 313 313 314 313 312 308 308 307 311 309 310 310 310 310 312 307 309 309 305 304 304 304 304
317 316 316 315 315 314 314 313 314 314 315 315 316 315 316 316 315 315 314 314 312 312 313 313 312 307 306 307 312 310 309 307 309 311 311 312 311 305 305 306 302 302 301 302 303
320 318 317 316 315 314 314 314 316 316 316 316 316 316 315 315 315 313 312 312 312 312 309 310 308 309 309 307 309 309 308 310 309 310 312 311 310 304 303 302 301 300 300 300 300
323 322 321 319 318 316 315 315 315 316 316 316 316 316 315 313 313 312 312 312 311 309 307 307 307 309 307 308 308 309 309 308 308 309 310 310 307 303 302 301 300 300 299 299 300
324 324 323 323 321 319 317 316 315 318 318 319 316 316 316 316 314 313 312 311 309 307 307 308 310 308 308 308 308 307 308 308 310 310 309 309 308 304 302 300 299 299 299 299 299
321 324 325 322 322 322 319 319 316 320 316 315 316 318 316 316 312 315 312 312 309 309 308 308 308 310 309 310 308 309 307 309 310 311 313 308 311 305 303 301 298 297 298 298 298
321 322 324 324 323 322 322 320 317 320 321 314 314 312 313 315 312 310 310 310 309 309 310 312 310 309 311 311 308 311 309 309 309 309 308 308 308 307 302 301 299 297 297 297 297
322 321 324 323 323 322 323 319 319 318 323 318 310 309 311 309 309 308 309 310 311 310 310 310 309 309 310 308 309 306 307 307 305 306 310 309 309 308 304 304 300 297 297 296 296
321 321 321 323 321 322 320 320 320 319 319 316 311 308 311 308 308 308 308 308 312 313 312 310 310 308 308 308 307 308 310 312 313 311 313 307 308 310 304 302 300 297 296 296 295
320 320 321 321 323 322 319 317 319 318 320 309 308 307 311 307 308 307 308 310 308 310 311 314 316 309 306 308 310 308 309 313 314 313 313 308 311 311 301 301 301 298 297 296 295
320 320 320 321 322 322 316 321 319 317 317 311 310 310 308 308 308 307 306 308 309 307 314 312 313 308 306 307 308 308 310 309 309 296 307 309 309 302 299 297 297 296 296 296 295
318 319 319 321 322 319 318 321 317 315 318 312 317 312 311 309 309 308 306 306 308 307 309 312 314 308 307 308 307 308 307 313 309 310 310 309 309 309 301 298 296 295 295 296 296
320 318 318 319 320 317 320 319 316 315 318 315 316 316 311 311 310 308 309 310 309 307 308 309 311 309 308 308 309 308 309 308 310 309 309 307 307 304 303 299 297 296 296 297 297
318 314 315 317 316 310 313 313 313 315 317 316 316 317 317 316 315 311 311 314 309 308 308 308 312 310 309 306 307 308 308 309 314 310 306 306 308 300 301 300 298 297 297 298 298
316 314 313 314 317 309 310 312 313 316 317 317 317 315 315 317 318 317 316 310 310 310 311 310 311 308 312 310 308 309 307 306 307 306 306 308 307 300 300 299 299 298 298 298 298
311 313 311 313 313 312 311 310 314 314 315 313 314 314 314 314 313 315 316 309 310 310 310 310 309 308 312 311 307 307 308 307 308 311 308 307 304 303 299 299 298 299 300 299 298
304 308 308 311 311 312 311 311 312 314 314 314 313 312 314 315 314 313 313 307 305 310 310 310 312 308 307 308 308 304 303 306 307 307 310 309 307 305 302 301 300 301 300 299 298
301 303 304 305 306 312 312 313 312 312 313 311 311 312 312 309 312 312 311 310 310 303 308 308 312 309 310 304 308 310 308 306 306 306 303 304 304 302 302 301 299 301 299 298 298
301 301 304 302 303 308 311 312 312 312 312 311 311 311 312 311 310 305 307 308 307 306 307 306 306 307 311 297 301 307 304 307 307 304 306 306 307 295 295 297 299 299 298 298 296
Wind_Speed
5 5 6 6 6 7 7 7 7 8 8 9 10 10 11 12 13 14 14 7 6 6 6 5 4 2 1 2 3 2 4 1 3 5 2 4 6 1 5 3 6 3 7 9 8
8 8 7 7 7 8 8 9 10 10 10 10 11 12 13 14 15 15 7 4 3 3 4 5 3 2 2 2 2 4 3 6 4 4 2 5 2 8 3 7 2 11 6 7 11
10 10 9 9 10 9 9 10 10 11 11 12 12 12 13 14 15 3 1 1 2 3 6 5 4 1 2 0 1 3 5 3 3 8 4 2 6 2 3 4 6 11 13 5 3
12 12 12 11 11 11 11 11 12 12 12 13 13 13 13 11 3 2 2 2 2 4 5 5 2 1 1 1 2 0 6 5 3 2 2 3 3 5 6 1 10 7 5 5 5
15 14 13 13 13 13 13 13 13 13 13 13 13 13 13 8 9 11 10 8 7 7 8 7 5 2 2 2 2 2 3 4 9 10 10 10 10 7 18 10 4 6 4 7 8
17 16 16 15 15 15 15 15 15 14 14 13 13 13 12 8 9 10 10 11 10 10 10 9 4 5 2 3 4 1 4 11 11 14 10 6 1 4 8 7 6 2 5 7 8
18 18 18 17 16 16 16 15 15 15 16 14 14 13 14 21 14 11 11 11 10 10 10 10 9 6 4 1 2 2 5 6 6 4 4 6 1 5 3 2 7 7 6 6 8
18 18 18 18 18 18 17 16 16 16 16 16 14 13 11 15 16 16 18 14 10 9 9 8 8 7 3 2 4 3 4 4 2 2 0 4 5 9 10 2 9 8 8 8 10
18 17 17 18 18 19 19 17 16 16 16 15 13 10 11 14 13 15 14 13 12 10 9 7 8 4 4 5 4 4 3 4 7 1 2 3 6 6 16 5 12 11 10 12 12
18 18 17 16 17 18 18 16 15 15 16 15 15 7 17 9 7 8 12 10 7 9 7 6 4 3 2 4 6 6 4 4 5 1 2 0 6 9 18 13 15 14 15 16 17
18 19 19 18 16 17 16 14 9 8 13 13 5 7 4 10 9 8 12 13 8 7 5 3 3 9 14 11 2 5 4 5 3 3 1 5 2 7 11 15 15 16 17 20 23
21 20 20 19 18 16 15 8 8 6 11 17 23 25 20 8 6 13 15 12 9 6 6 3 8 11 4 4 4 1 3 5 4 4 5 4 2 4 8 6 9 15 18 21 23
24 24 21 21 21 19 19 16 12 9 6 10 23 26 34 26 15 18 22 13 6 7 9 8 5 7 7 4 5 5 6 5 6 2 2 1 3 4 4 11 12 13 16 18 21
24 25 25 24 24 24 25 12 14 5 4 6 8 8 15 15 8 21 25 11 4 11 7 8 6 5 5 6 10 6 8 6 5 4 5 2 5 3 5 5 6 10 14 17 19
29 26 28 32 28 24 20 10 9 7 6 1 4 5 12 9 10 6 22 10 7 8 7 7 7 6 7 10 7 5 5 7 3 4 2 2 1 2 6 6 8 14 17 18 19
32 28 27 29 35 29 24 17 22 5 12 3 4 5 6 3 3 5 6 4 4 4 2 4 2 7 8 2 8 8 6 6 4 3 3 9 7 4 6 7 10 14 19 19 19
30 30 31 34 33 33 23 24 4 6 3 6 4 5 3 5 3 4 6 7 7 5 7 2 5 3 5 5 2 3 6 0 1 1 6 4 5 6 6 6 17 22 26 22 19
28 29 34 37 37 31 30 6 9 7 8 4 4 4 8 6 4 6 6 6 6 2 3 6 5 11 7 8 8 7 7 5 7 5 2 0 6 4 1 5 23 29 30 25 22
28 34 40 41 41 37 27 10 10 6 6 10 4 4 5 5 7 5 7 6 10 11 9 6 6 1 3 4 8 6 6 3 6 2 2 4 3 0 4 6 19 28 32 29 24
25 29 39 42 39 37 12 20 8 8 5 5 16 11 12 9 9 9 9 5 6 12 5 5 3 2 3 5 2 4 7 2 1 2 4 4 4 5 8 12 13 17 26 29 24
17 13 14 27 32 19 11 9 8 12 11 8 13 9 7 8 10 7 7 1 4 5 8 5 3 0 4 5 7 3 3 2 3 4 5 1 5 1 13 18 21 24 32 33 28
13 4 9 22 12 3 1 4 3 6 9 4 1 4 8 9 9 7 11 2 7 5 9 7 4 5 5 2 0 0 6 6 5 5 2 2 5 3 6 20 26 28 33 34 28
9 10 16 23 6 4 4 4 3 4 7 7 6 4 1 7 5 5 6 2 7 3 6 6 2 2 5 1 1 4 4 4 4 3 6 4 5 4 7 14 22 25 31 32 27
5 4 8 21 9 8 6 5 5 12 3 4 2 2 3 2 2 5 5 3 4 4 9 7 2 4 6 2 1 4 4 4 4 6 6 9 2 3 6 10 17 25 33 30 27
2 3 4 4 7 13 11 9 13 7 10 20 7 8 6 5 7 7 4 3 3 9 6 5 5 4 4 1 2 1 4 5 7 5 9 10 8 7 14 15 29 36 32 31 28
7 4 3 5 3 13 11 13 15 9 9 4 5 13 12 5 6 6 5 4 4 1 5 6 4 6 4 1 4 5 14 8 11 9 9 2 8 2 8 13 19 31 31 31 31
9 10 3 3 1 3 5 5 5 13 9 8 18 10 15 17 11 4 7 10 7 11 10 7 6 6 5 2 2 6 14 17 11 7 10 11 14 5 4 10 23 29 30 32 31
Wind_Direction
282 287 295 300 304 308 310 310 313 315 318 318 319 320 320 318 315 313 314 292 258 245 247 238 220 244 13 60 53 75 61 184 226 165 253 349 17 77 336 252 336 320 323 323 343
274 277 278 280 285 291 298 302 305 308 311 313 315 316 318 318 316 311 298 286 253 221 192 179 179 120 76 63 50 82 105 222 209 208 220 317 326 329 333 327 312 337 352 314 305
271 272 273 278 282 283 285 290 296 301 304 306 308 310 314 320 324 337 341 114 121 157 158 158 152 20 90 176 171 141 187 217 262 235 279 286 301 305 316 315 354 339 333 4 9
265 268 273 276 277 279 282 285 289 294 298 302 305 307 310 316 318 302 222 222 225 206 195 195 232 23 71 269 195 219 246 222 280 247 273 267 291 297 260 246 329 342 60 64 37
271 270 270 274 277 280 281 283 285 288 292 298 302 304 308 292 265 272 262 261 258 239 229 227 234 195 182 198 181 191 271 252 266 274 271 268 253 265 283 302 134 98 64 39 32
271 272 272 272 276 278 280 282 284 286 289 293 297 298 294 273 269 265 260 257 254 247 237 230 229 223 206 199 177 261 280 286 287 276 263 228 288 170 97 97 101 74 41 25 16
271 271 272 273 272 275 278 280 282 285 286 288 292 292 277 264 270 266 262 255 248 240 237 234 231 200 184 244 261 313 331 321 265 270 215 177 173 231 139 33 83 67 57 42 39
271 273 273 272 273 272 272 274 277 278 281 285 290 288 261 268 261 259 254 249 237 231 231 233 218 214 208 150 22 23 56 356 308 150 176 154 258 69 41 38 92 78 73 66 62
271 268 270 273 271 273 273 273 273 275 278 278 281 270 266 257 260 251 241 239 237 226 214 200 178 172 148 104 11 2 235 206 315 262 139 158 259 69 8 88 94 83 83 81 81
271 272 269 269 274 272 274 277 278 278 270 271 259 273 240 237 236 235 221 213 202 195 177 183 172 98 58 118 220 198 209 230 234 264 69 105 273 43 26 119 102 96 93 89 84
269 272 270 270 270 272 277 283 290 271 237 221 198 223 251 223 221 210 199 184 169 171 170 163 136 212 202 201 172 151 184 201 243 247 118 247 244 12 49 90 101 106 99 93 88
259 262 268 266 265 266 267 256 236 272 295 258 248 248 250 228 199 200 188 177 171 181 121 58 231 226 163 173 199 207 179 230 281 239 178 231 136 59 49 59 108 117 112 108 104
260 261 257 260 259 257 259 253 254 273 264 257 244 239 240 232 229 204 192 193 163 152 191 184 222 154 167 159 185 218 202 217 211 1 291 4 221 182 67 89 107 115 120 117 109
262 257 256 246 253 257 255 259 241 271 290 249 220 225 207 202 228 220 202 193 184 193 167 233 237 179 174 196 191 229 203 164 180 131 235 141 274 182 154 120 101 138 136 128 119
259 254 255 244 247 243 255 253 207 169 279 44 145 168 161 184 149 175 186 196 174 175 145 228 175 191 206 226 153 236 138 167 139 162 76 228 270 240 136 191 181 171 157 146 132
256 252 254 255 246 241 244 219 162 153 227 243 133 158 128 158 139 113 162 153 149 133 276 240 213 168 201 134 170 142 81 55 64 100 257 209 181 221 196 193 168 181 170 156 143
252 251 243 247 240 236 216 170 190 195 239 201 188 176 159 156 170 159 164 171 164 143 219 210 217 200 154 102 73 128 113 57 335 286 227 142 163 246 179 162 171 174 176 165 152
255 247 239 243 251 239 206 211 207 207 211 101 116 111 176 156 204 172 142 191 240 140 128 176 272 173 187 177 173 186 169 167 203 200 224 132 226 248 332 220 172 171 169 167 161
252 249 246 242 243 238 182 213 199 191 200 150 123 154 222 203 164 153 193 211 200 180 185 181 268 171 157 150 146 187 205 166 108 53 46 210 290 153 95 111 152 167 174 176 171
234 229 240 237 236 216 214 227 212 187 176 161 204 182 188 191 164 183 173 201 209 183 192 205 260 213 149 115 37 169 157 123 43 177 244 265 255 225 194 182 174 180 187 182 177
210 213 229 232 227 204 219 220 206 205 190 182 204 190 195 176 186 195 193 221 206 172 183 155 182 18 124 210 178 151 178 77 135 156 187 244 248 232 195 182 181 187 192 186 186
202 214 188 189 197 21 207 161 255 193 189 200 203 178 173 171 180 202 201 241 161 161 162 195 160 182 191 152 316 11 195 170 192 208 206 165 263 341 215 182 182 189 195 192 192
205 189 182 187 217 159 198 222 256 213 200 167 184 220 138 167 164 173 156 132 141 143 152 177 182 79 343 166 66 224 193 137 115 81 199 159 255 31 114 163 186 189 199 196 195
241 202 174 199 212 217 187 201 201 223 262 117 114 106 136 154 136 176 167 139 152 120 107 76 149 187 216 139 69 193 185 178 155 209 207 230 274 214 168 170 181 197 200 199 199
280 279 150 199 205 194 190 187 188 207 201 193 195 219 173 179 166 189 145 113 68 164 124 149 192 177 201 222 9 217 208 190 205 204 216 245 230 218 196 189 190 195 196 198 199
197 263 38 334 8 194 184 199 199 185 166 211 197 197 192 179 193 179 141 166 181 171 171 172 200 160 188 200 205 253 266 219 233 232 258 215 254 262 171 171 171 188 193 198 201
223 200 178 198 33 305 204 187 233 192 202 195 205 203 206 218 209 145 173 189 189 169 178 169 152 150 219 77 116 271 235 217 221 185 203 218 236 152 171 177 191 196 200 204 203